Home > Weather > Caguas > Past weeks

Flag for Puerto Rico Past Weather in Caguas, Puerto Rico — Yesterday and Last 2 Weeks

Now
82 °F

Passing clouds.


Feels Like: 92 °F
Forecast: 78 / 91 °F
Wind: 10 mph from East

Location: Luis Munoz Marin

Current Time: Jul 26, 2016 at 11:48:31 PM

Latest Report: Jul 26, 2016 at 10:56 PM


Visibility: 10 mi

Pressure: 30.02 "Hg

Humidity: 91%

Dew Point: 79 °F

Location of CaguasLocation

Past Weather in Caguas — Graph

°F

Caguas Temperature Yesterday

Maximum temperature yesterday: 89 °F (at 11:56 AM)
Minimum temperature yesterday: 78 °F (at 2:56 AM)
Average temperature yesterday: 83 °F

High & Low Weather Summary for the Past Weeks

 TemperatureHumidityPressure
High90 °F (Jul 19, 11:56 AM)100% (Jul 18, 5:56 AM)30.09 "Hg (Jul 18, 5:56 AM)
Low76 °F (Jul 17, 11:56 PM)59% (Jul 19, 11:56 AM)29.94 "Hg (Jul 18, 5:56 PM)
Average83 °F82%30.02 "Hg
* Reported Jul 11 9:56 PM — Jul 26 9:56 PM, Caguas, Weather by CustomWeather, © 2016

Note: Actual official high and low records may vary slightly from our data, if they occured in-between our weather recording intervals... More about our weather records

Advertising

Caguas Weather History for the Previous 24 Hours

Scroll right to see more
 ConditionsComfort  
Time TempWeatherWind HumidityBarometerVisibility
9:56 PM
Tue, Jul 26
83 °FPassing clouds.10 mph88%30.01 "Hg10 mi
8:56 PM83 °FPassing clouds.9 mph88%30.00 "Hg10 mi
7:56 PM83 °FScattered clouds.3 mph88%29.98 "Hg10 mi
6:56 PM84 °FScattered clouds.14 mph85%29.97 "Hg10 mi
5:56 PM86 °FScattered clouds.15 mph77%29.96 "Hg10 mi
4:56 PM87 °FScattered clouds.17 mph72%29.96 "Hg10 mi
3:56 PM88 °FScattered clouds.16 mph70%29.95 "Hg10 mi
2:56 PM88 °FScattered clouds.18 mph70%29.96 "Hg10 mi
1:56 PM88 °FScattered clouds.17 mph75%29.97 "Hg10 mi
12:56 PM85 °FLight rain. Scattered clouds.9 mph86%29.97 "Hg10 mi
11:56 AM87 °FScattered clouds.6 mph75%29.99 "Hg10 mi
10:56 AM88 °FScattered clouds.12 mph73%30.00 "Hg10 mi
9:56 AM83 °FScattered clouds.7 mph88%30.01 "Hg10 mi
8:56 AM83 °FScattered clouds.6 mph88%30.00 "Hg10 mi
7:56 AM80 °FBroken clouds.No wind96%29.99 "Hg10 mi
6:56 AM79 °FLight rain. Partly cloudy.3 mph97%29.98 "Hg10 mi
6:00 AM79 °FThunderstorms. Fog.No wind100%29.98 "Hg2 mi
4:56 AM79 °FPartly cloudy.No wind94%29.96 "Hg10 mi
3:56 AM78 °FPassing clouds.5 mph96%29.96 "Hg10 mi
2:56 AM78 °FMostly cloudy.5 mph96%29.97 "Hg10 mi
1:56 AM78 °FThunderstorms. Mostly cloudy.3 mph96%29.98 "Hg9 mi
12:56 AM79 °FThunderstorms. Mostly cloudy.10 mph94%30.01 "Hg8 mi
11:56 PM
Mon, Jul 25
80 °FPartly cloudy.9 mph94%30.02 "Hg10 mi
Weather by CustomWeather, © 2016

See weather overviewHow to use our weather pages